Weather History for New Haven, CT

Change the Weather History Date:

Monday, December 9, 2013

  Actual Average Record
Temperature  
Mean Temperature 34 °F -  
Max Temperature 39 °F 42 °F 64 °F (1991)
Min Temperature 28 °F 30 °F 12 °F (1976)
Degree Days  
Heating Degree Days 32    
Moisture  
Dew Point 30 °F    
Average Humidity 90    
Maximum Humidity 97    
Minimum Humidity 85    
Precipitation  
Precipitation 0.03 in - - ()
Sea Level Pressure  
Sea Level Pressure 30.16 in    
Wind  
Wind Speed 9 mph (NNE)    
Max Wind Speed 13 mph    
Max Gust Speed 18 mph    
Visibility 6 miles    
Events Rain    
Averages and records for this station are not official NWS values.
T = Trace of Precipitation, MM = Missing Value Source: NWS Daily Summary

Daily Weather History Graph

Daily Weather History Graph

Search for Another Location

Airport:

Trip Planner

Search our weather history database for the weather conditions in past years. The results will help you decide how hot, cold, wet, or windy it might be!

Date:

Astronomy

Dec. 09, 2013 Rise Set
Actual Time 7:05 AM EST 4:22 PM EST
Civil Twilight 6:34 AM EST 4:53 PM EST
Nautical Twilight 5:59 AM EST 5:28 PM EST
Astronomical Twilight 5:26 AM EST 6:01 PM EST
Moon 11:53 AM EST (12/9) No Moon Set
Length of Visible Light 10h 18m
Length of Day
9h 16m
Waxing Crescent, 51% of the Moon is Illuminated
Dec 9
Waxing Crescent
Dec 17
Full
Dec 25
Last Quarter
Jan 1
New
Jan 7
First Quarter

Hourly Weather History & Observations

Time (EST) Temp. Windchill Dew Point Humidity Pressure Visibility Wind Dir Wind Speed Gust Speed Precip Events Conditions
12:30 AM 28.4 °F 20.4 °F 24.8 °F 86% 30.42 in 10.0 mi NNE 8.1 mph - 0.00 in   Overcast
12:53 AM 28.9 °F 19.8 °F 25.0 °F 85% 30.40 in 5.0 mi NNE 10.4 mph - 0.00 in   Overcast
1:00 AM 28.4 °F 19.1 °F 24.8 °F 86% 30.40 in 5.0 mi NNE 10.4 mph - 0.00 in Rain Light Freezing Rain
1:13 AM 28.4 °F 19.1 °F 24.8 °F 86% 30.39 in 7.0 mi NNE 10.4 mph - 0.00 in Rain Light Freezing Rain
1:22 AM 28.4 °F 19.1 °F 24.8 °F 86% 30.39 in 7.0 mi NNE 10.4 mph - 0.00 in   Overcast
1:34 AM 28.4 °F 19.7 °F 24.8 °F 86% 30.39 in 5.0 mi NNE 9.2 mph - 0.00 in   Overcast
1:53 AM 28.9 °F 19.2 °F 26.1 °F 89% 30.38 in 5.0 mi NE 11.5 mph 17.3 mph 0.00 in   Overcast
2:01 AM 28.4 °F 19.1 °F 26.6 °F 93% 30.38 in 6.0 mi NE 10.4 mph - 0.00 in Rain Light Freezing Rain
2:22 AM 28.4 °F 19.1 °F 26.6 °F 93% 30.37 in 7.0 mi NNE 10.4 mph - 0.00 in Rain Light Freezing Rain
2:36 AM 28.4 °F 19.1 °F 26.6 °F 93% 30.37 in 10.0 mi NNE 10.4 mph - 0.00 in Rain Light Freezing Rain
2:40 AM 28.4 °F 19.7 °F 26.6 °F 93% 30.36 in 10.0 mi NNE 9.2 mph - 0.00 in   Overcast
2:53 AM 28.9 °F 19.2 °F 26.1 °F 89% 30.35 in 8.0 mi NE 11.5 mph - 0.00 in   Overcast
3:17 AM 28.4 °F 19.1 °F 26.6 °F 93% 30.33 in 10.0 mi NE 10.4 mph - N/A   Overcast
3:51 AM 30.2 °F 21.3 °F 26.6 °F 86% 30.32 in 10.0 mi NE 10.4 mph - N/A   Overcast
3:53 AM 30.0 °F 21.7 °F 26.1 °F 85% 30.32 in 10.0 mi NE 9.2 mph - N/A   Overcast
4:27 AM 30.2 °F 20.2 °F 26.6 °F 86% 30.29 in 6.0 mi NE 12.7 mph - 0.00 in Rain Light Freezing Rain
4:43 AM 30.2 °F 21.9 °F 26.6 °F 86% 30.29 in 6.0 mi NE 9.2 mph 18.4 mph 0.00 in Rain Light Freezing Rain
4:53 AM 30.0 °F 21.7 °F 27.0 °F 88% 30.29 in 6.0 mi NE 9.2 mph - 0.00 in Rain Light Freezing Rain
5:05 AM 30.2 °F 21.9 °F 26.6 °F 86% 30.27 in 5.0 mi NE 9.2 mph - 0.00 in   Overcast
5:30 AM 30.2 °F 21.3 °F 26.6 °F 86% 30.25 in 7.0 mi NE 10.4 mph - 0.00 in   Overcast
5:53 AM 30.9 °F 21.7 °F 28.0 °F 89% 30.24 in 7.0 mi NE 11.5 mph - 0.00 in   Overcast
6:05 AM 30.2 °F 20.8 °F 28.4 °F 93% 30.22 in 6.0 mi ENE 11.5 mph - 0.00 in Rain Light Freezing Rain
6:53 AM 33.1 °F 24.9 °F 30.0 °F 89% 30.19 in 8.0 mi NE 10.4 mph - 0.01 in Rain Light Freezing Rain
7:53 AM 33.1 °F 25.5 °F 30.9 °F 92% 30.18 in 1.8 mi NE 9.2 mph - 0.01 in Rain Light Freezing Rain
7:58 AM 33.8 °F 26.4 °F 30.2 °F 87% 30.17 in 1.5 mi NE 9.2 mph - 0.00 in Rain Light Freezing Rain
8:03 AM 33.8 °F 27.0 °F 30.2 °F 87% 30.16 in 1.5 mi NE 8.1 mph - 0.00 in Rain Light Rain
8:16 AM 33.8 °F 27.7 °F 30.2 °F 87% 30.16 in 2.0 mi NNE 6.9 mph - 0.01 in Rain Light Rain
8:50 AM 33.8 °F 27.7 °F 30.2 °F 87% 30.15 in 1.8 mi NE 6.9 mph - 0.01 in   Overcast
8:53 AM 33.1 °F 26.9 °F 30.9 °F 92% 30.15 in 2.0 mi NE 6.9 mph - 0.01 in   Overcast
9:32 AM 33.8 °F 25.3 °F 30.2 °F 87% 30.13 in 4.0 mi NNE 11.5 mph - 0.00 in   Overcast
9:53 AM 34.0 °F 27.2 °F 32.0 °F 92% 30.13 in 4.0 mi NNE 8.1 mph - 0.00 in   Overcast
10:15 AM 33.8 °F 26.4 °F 32.0 °F 93% 30.10 in 6.0 mi NNE 9.2 mph - N/A   Overcast
10:32 AM 33.8 °F 26.4 °F 32.0 °F 93% 30.10 in 1.8 mi NNE 9.2 mph - N/A   Overcast
10:53 AM 34.0 °F 26.6 °F 32.0 °F 92% 30.09 in 1.5 mi NNE 9.2 mph - N/A   Overcast
11:36 AM 33.8 °F 24.8 °F 32.0 °F 93% 30.05 in 1.5 mi NNE 12.7 mph - N/A   Overcast
11:53 AM 34.0 °F 25.5 °F 32.0 °F 92% 30.04 in 1.5 mi North 11.5 mph - N/A   Overcast
12:53 PM 36.0 °F 28.5 °F 34.0 °F 93% 29.96 in 2.0 mi NNE 10.4 mph - N/A   Overcast
1:15 PM 35.6 °F 28.6 °F 33.8 °F 93% 29.94 in 2.5 mi North 9.2 mph - N/A   Overcast
1:34 PM 35.6 °F 29.2 °F 33.8 °F 93% 29.95 in 3.0 mi North 8.1 mph - N/A   Overcast
1:53 PM 36.0 °F 27.5 °F 34.0 °F 93% 29.94 in 3.0 mi North 12.7 mph - N/A   Overcast
2:53 PM 36.0 °F 30.3 °F 34.0 °F 93% 29.94 in 4.0 mi North 6.9 mph - N/A   Overcast
3:53 PM 36.0 °F 28.5 °F 34.0 °F 93% 29.95 in 9.0 mi North 10.4 mph - N/A   Overcast
4:53 PM 36.0 °F 33.3 °F 35.1 °F 97% 29.96 in 10.0 mi North 3.5 mph - N/A   Overcast
5:53 PM 37.0 °F - 34.0 °F 89% 29.96 in 10.0 mi Calm Calm - N/A   Overcast
6:53 PM 37.0 °F 33.3 °F 35.1 °F 93% 29.96 in 7.0 mi WSW 4.6 mph - N/A   Overcast
7:53 PM 39.0 °F 36.8 °F 37.0 °F 93% 29.98 in 10.0 mi Variable 3.5 mph - N/A   Overcast
8:24 PM 39.2 °F 33.6 °F 35.6 °F 87% 29.98 in 10.0 mi WSW 8.1 mph - N/A   Scattered Clouds
8:32 PM 39.2 °F 34.2 °F 35.6 °F 87% 29.97 in 10.0 mi WSW 6.9 mph - N/A   Overcast
8:53 PM 39.0 °F 35.7 °F 35.1 °F 86% 29.97 in 10.0 mi WSW 4.6 mph - N/A   Overcast
9:00 PM 37.4 °F 32.8 °F 35.6 °F 93% 29.97 in 10.0 mi WSW 5.8 mph - N/A   Scattered Clouds
9:53 PM 37.9 °F 32.1 °F 35.1 °F 89% 29.98 in 10.0 mi WSW 8.1 mph - N/A   Clear
10:53 PM 37.0 °F 33.3 °F 34.0 °F 89% 29.97 in 10.0 mi Variable 4.6 mph - N/A   Clear
11:53 PM 37.0 °F 31.6 °F 34.0 °F 89% 29.97 in 10.0 mi WSW 6.9 mph - N/A   Clear